[[{"header":{"parameterUnit":"m.s-1","parameterCategory":1,"la1":30.2991,"la2":30.254,"lo1":-89.0895,"lo2":-89.0444,"dy":0.0017,"dx":0.0017,"nx":28,"ny":28,"refTime":"2024-05-03T21:00:00:Z","depth":0,"parameterNumber":2,"parameterNumberName":"U-component_of_WINDS"},"data":[0,0,0,0,0,0,0,0,0,0,0,0,0,0,0,0,0,0,0,0,0,0,0,0,0,0,0,0,0,0,0,0,0,0,0,0,0,0,0,0,0,0,0,0,0,0,0,0,0,0,0,0,0,0,0,0,0,0,-2.208,-2.208,0,-2.212,-2.212,-2.2121,-2.2093,-2.2092,-2.209,-2.2089,-2.2128,-2.2131,-2.2133,0,0,0,0,0,0,0,0,0,0,0,0,0,-2.1978,-2.198,-2.208,-2.208,-2.2081,-2.212,-2.212,-2.2121,-2.2093,-2.2092,-2.209,-2.2089,-2.2128,-2.213,-2.2133,0,0,0,0,0,0,0,0,0,0,0,0,0,-2.202,-2.1981,-2.208,-2.2072,-2.2071,-2.212,-2.212,-2.2121,-2.2093,-2.2091,-2.209,-2.2088,-2.2127,-2.213,-2.2133,-2.2191,0,0,-2.2143,-2.2145,0,0,0,0,0,0,0,0,-2.2018,-2.2024,-2.2072,-2.2072,-2.2072,-2.2099,-2.2099,-2.2144,-2.2094,-2.2085,-2.2089,-2.2087,-2.212,-2.2124,-2.2135,-2.2193,-2.2194,-2.2144,-2.2146,-2.2147,-2.2148,0,0,0,0,0,0,0,-2.2015,-2.2022,-2.2096,-2.2073,-2.2073,-2.2066,-2.2069,-2.2107,-2.2112,-2.2086,-2.2084,-2.2089,-2.212,-2.2132,-2.2136,-2.2195,-2.2144,-2.2146,-2.2149,-2.215,-2.2301,-2.2303,0,0,0,0,0,0,-2.2013,-2.202,-2.2094,-2.2097,-2.204,-2.2069,-2.2073,-2.2092,-2.2112,-2.2113,-2.209,-2.2087,-2.2128,-2.2132,-2.2137,-2.2206,-2.2147,-2.215,-2.2152,-2.2299,-2.2302,-2.2304,0,0,0,0,0,0,-2.2011,-2.202,-2.2093,-2.2058,-2.2067,-2.2073,-2.2094,-2.2094,-2.2107,-2.2116,-2.2116,-2.2102,-2.2126,-2.2133,-2.2178,-2.2207,-2.2152,-2.2155,-2.2297,-2.23,-2.2303,-2.2344,0,0,0,0,0,0,-2.2008,-2.2019,-2.2042,-2.2059,-2.2069,-2.2133,-2.2096,-2.2096,-2.2113,-2.2109,-2.2127,-2.2128,-2.2125,-2.2173,-2.2181,-2.221,-2.2157,-2.2294,-2.2298,-2.2302,-2.234,-2.2348,-2.2354,0,0,0,0,0,-2.2005,-2.2052,-2.2043,-2.2052,-2.2097,-2.2135,-2.214,-2.2137,-2.2115,-2.2138,-2.2143,-2.2128,-2.2202,-2.2178,-2.2187,-2.2217,-2.2292,-2.2297,-2.2301,-2.2336,-2.2346,-2.2354,0,0,0,0,0,0,-2.2038,-2.2054,-2.2045,-2.2098,-2.2116,-2.213,-2.2158,-2.2147,-2.217,-2.2166,-2.216,-2.2164,-2.2211,-2.2219,-2.2191,-2.2274,-2.2244,-2.225,-2.2267,-2.2277,-2.2284,-2.2281,-2.216,0,0,0,0,0,-2.2051,-2.2082,-2.2094,-2.214,-2.2149,-2.2152,-2.2169,-2.2164,-2.2181,-2.2188,-2.2197,-2.2214,-2.2241,-2.2259,-2.2285,-2.2341,-2.2344,-2.2366,-2.2373,-2.2379,-2.2385,-2.2415,-2.2425,-2.2319,-2.2319,-2.2319,0,0,-2.208,-2.2092,-2.2111,-2.2147,-2.216,-2.219,-2.2159,-2.2192,-2.2215,-2.2193,-2.2237,-2.2244,-2.2262,-2.2313,-2.2335,-2.232,-2.2415,-2.2385,-2.239,-2.2393,-2.242,-2.243,-2.2439,-2.2322,-2.2321,-2.2321,0,0,-2.2147,-2.216,-2.2199,-2.2213,-2.2233,-2.2235,-2.2244,-2.226,-2.2264,-2.2308,-2.2292,-2.2319,-2.2366,-2.2379,-2.2392,-2.2465,-2.2451,-2.2473,-2.2512,-2.2541,-2.2549,-2.2556,-2.2581,-2.2591,-2.2479,-2.2479,-2.2479,0,-2.218,-2.2226,-2.2221,-2.2256,-2.2272,-2.2254,-2.2294,-2.2307,-2.2334,-2.2345,-2.2328,-2.2387,-2.2398,-2.2451,-2.2469,-2.248,-2.2491,-2.2471,-2.2548,-2.2555,-2.2562,-2.2586,-2.2596,-2.2481,-2.2481,-2.2481,-2.2481,0,-2.2265,-2.2297,-2.2326,-2.2353,-2.2372,-2.241,-2.241,-2.243,-2.2424,-2.2427,-2.2471,-2.2484,-2.2512,-2.2524,-2.2518,-2.2576,-2.2566,-2.2549,-2.2518,-2.2575,-2.2597,-2.2607,-2.2485,-2.2484,-2.2483,-2.2483,0,0,-2.2354,-2.2378,-2.2389,-2.2401,-2.2421,-2.2446,-2.2482,-2.2509,-2.2526,-2.2545,-2.2575,-2.2615,-2.2599,-2.2614,-2.2609,-2.2635,-2.2691,-2.2614,-2.2614,-2.2628,-2.2755,-2.2768,-2.2779,-2.2682,-2.2683,-2.2685,-2.2753,0,-2.2422,-2.2486,-2.2483,-2.2542,-2.2571,-2.2555,-2.2586,-2.2602,-2.2606,-2.2631,-2.2635,-2.2663,-2.264,-2.2649,-2.2673,-2.2679,-2.2716,-2.2674,-2.2709,-2.271,-2.2705,-2.279,-2.2804,-2.2868,-2.2762,-2.2764,-2.2765,0,-2.251,-2.2533,-2.2595,-2.2611,-2.2623,-2.2652,-2.2676,-2.27,-2.2717,-2.2718,-2.2735,-2.2726,-2.2762,-2.2731,-2.278,-2.2751,-2.2766,-2.277,-2.2773,-2.2776,-2.2741,-2.2795,-2.2888,-2.2898,-2.2779,-2.2777,-2.2776,0,-2.2569,-2.2615,-2.2658,-2.2669,-2.2688,-2.2708,-2.2717,-2.2732,-2.2749,-2.277,-2.2781,-2.2806,-2.282,-2.2839,-2.2837,-2.2815,-2.2887,-2.2856,-2.2888,-2.2888,-2.2904,-2.2903,-2.3001,-2.2914,-2.2914,-2.2913,-2.2913,0,-2.2645,-2.2684,-2.2684,-2.2711,-2.2754,-2.2749,-2.2791,-2.2798,-2.2812,-2.2839,-2.2826,-2.2851,-2.2847,-2.2873,-2.2871,-2.2912,-2.2918,-2.292,-2.2919,-2.2921,-2.2921,-2.293,-2.2925,-2.2916,-2.2915,-2.2915,-2.2914,0,-2.2718,-2.272,-2.2766,-2.278,-2.2785,-2.2816,-2.2828,-2.2853,-2.2855,-2.289,-2.2898,-2.2902,-2.2931,-2.2931,-2.2964,-2.2963,-2.3013,-2.3007,-2.3008,-2.3006,-2.3039,-2.3036,-2.3146,-2.316,-2.3064,-2.3065,-2.3065,0,-2.2767,-2.2796,-2.2814,-2.2831,-2.2842,-2.287,-2.2887,-2.2883,-2.2901,-2.2922,-2.2945,-2.2973,-2.2995,-2.3042,-2.3048,-2.3073,-2.3068,-2.3105,-2.3071,-2.3072,-2.3068,-2.3066,-2.3069,-2.3111,-2.3112,-2.3113,-2.3114,0,-2.2853,-2.2852,-2.2877,-2.2903,-2.2923,-2.2943,-2.2961,-2.2976,-2.2974,-2.2995,-2.3025,-2.3042,-2.3076,-2.3104,-2.3128,-2.3137,-2.3125,-2.3124,-2.3133,-2.3135,-2.3134,-2.3135,-2.3025,-2.3121,-2.3121,-2.312,-2.312,-2.3119,-2.2915,-2.294,-2.2956,-2.2985,-2.2998,-2.3015,-2.3039,-2.3045,-2.307,-2.3097,-2.3093,-2.3127,-2.3142,-2.3174,-2.3185,-2.321,-2.3197,-2.321,-2.3213,-2.3217,-2.322,-2.313,-2.3215,-2.3214,-2.3214,-2.3214,-2.3214,0,-2.3,-2.301,-2.3036,-2.3061,-2.3083,-2.3071,-2.309,-2.3109,-2.3138,-2.3154,-2.3176,-2.3211,-2.3237,-2.3245,-2.3271,-2.329,-2.3285,-2.3297,-2.3295,-2.3298,-2.323,-2.322,-2.33,-2.33,-2.33,-2.33,-2.33,-2.33,-2.3047,-2.3089,-2.309,-2.3138,-2.3147,-2.318,-2.3192,-2.3207,-2.322,-2.3259,-2.3281,-2.3286,-2.3299,-2.3325,-2.3349,-2.3351,-2.3361,-2.3375,-2.3374,-2.3311,-2.3302,-2.3294,-2.3284,-2.3377,-2.3377,-2.3439,-2.344,-2.344]},{"header":{"parameterUnit":"m.s-1","parameterCategory":1,"la1":30.2991,"la2":30.254,"lo1":-89.0895,"lo2":-89.0444,"dy":0.0017,"dx":0.0017,"nx":28,"ny":28,"refTime":"2024-05-03T21:00:00:Z","depth":0,"parameterNumber":3,"parameterNumberName":"V-component_of_WINDS"},"data":[0,0,0,0,0,0,0,0,0,0,0,0,0,0,0,0,0,0,0,0,0,0,0,0,0,0,0,0,0,0,0,0,0,0,0,0,0,0,0,0,0,0,0,0,0,0,0,0,0,0,0,0,0,0,0,0,0,0,2.6276,2.6277,0,2.6364,2.6365,2.6366,2.6389,2.6388,2.6387,2.6387,2.6475,2.6477,2.648,0,0,0,0,0,0,0,0,0,0,0,0,0,2.6123,2.6126,2.6276,2.6277,2.6278,2.6364,2.6365,2.6367,2.6389,2.6388,2.6387,2.6387,2.6474,2.6477,2.6481,0,0,0,0,0,0,0,0,0,0,0,0,0,2.6198,2.6127,2.6275,2.6299,2.6302,2.6364,2.6365,2.6367,2.6389,2.6388,2.6387,2.6386,2.6473,2.6477,2.6481,2.6524,0,0,2.6494,2.6496,0,0,0,0,0,0,0,0,2.6194,2.6204,2.6295,2.6298,2.6301,2.6365,2.6344,2.642,2.6389,2.6356,2.6387,2.6386,2.6439,2.6446,2.6464,2.6528,2.6532,2.6495,2.6497,2.6499,2.65,0,0,0,0,0,0,0,2.6189,2.62,2.6311,2.6296,2.63,2.6305,2.6315,2.6358,2.6401,2.6359,2.6361,2.6371,2.644,2.646,2.6466,2.6533,2.6494,2.6498,2.6501,2.6503,2.6638,2.6639,0,0,0,0,0,0,2.618,2.6196,2.6308,2.6313,2.6245,2.6308,2.6319,2.6345,2.64,2.6408,2.6371,2.6372,2.6453,2.6461,2.6469,2.6524,2.6499,2.6503,2.6505,2.6637,2.6638,2.6639,0,0,0,0,0,0,2.6177,2.619,2.6304,2.6255,2.627,2.6312,2.6341,2.6347,2.6367,2.641,2.6417,2.6384,2.6453,2.6463,2.6511,2.6527,2.6505,2.6509,2.6636,2.6637,2.6639,2.6632,0,0,0,0,0,0,2.6172,2.6188,2.6206,2.6255,2.6273,2.6345,2.6342,2.635,2.6375,2.6376,2.6424,2.6431,2.6453,2.6504,2.6515,2.6532,2.6512,2.6635,2.6637,2.6638,2.6631,2.6633,2.6635,0,0,0,0,0,2.6167,2.62,2.6206,2.622,2.6295,2.6346,2.6355,2.6381,2.6376,2.6393,2.6421,2.6429,2.6524,2.6509,2.6521,2.654,2.6634,2.6636,2.6638,2.663,2.6633,2.6635,0,0,0,0,0,0,2.6149,2.6206,2.6215,2.6265,2.63,2.6349,2.6372,2.6383,2.642,2.6419,2.6448,2.6459,2.6504,2.6527,2.651,2.6585,2.6579,2.6583,2.6568,2.6571,2.6573,2.6566,2.6516,0,0,0,0,0,2.6152,2.6189,2.6236,2.6276,2.6293,2.633,2.6352,2.6369,2.6407,2.6421,2.6453,2.6488,2.6526,2.655,2.6587,2.6635,2.6646,2.6654,2.6656,2.6658,2.6661,2.6688,2.6693,2.6647,2.6647,2.6647,0,0,2.6156,2.6192,2.6213,2.6273,2.6303,2.634,2.6342,2.6381,2.6408,2.6427,2.6474,2.6498,2.654,2.6588,2.661,2.6608,2.6676,2.6661,2.6661,2.6664,2.6691,2.6695,2.6699,2.6649,2.6648,2.6648,0,0,2.6183,2.6214,2.6251,2.6281,2.6326,2.635,2.6359,2.6406,2.6424,2.6471,2.6486,2.6519,2.6584,2.6613,2.6636,2.6675,2.6684,2.6686,2.6696,2.6722,2.6726,2.6729,2.6743,2.6747,2.669,2.669,2.669,0,2.6183,2.624,2.6268,2.6306,2.6332,2.6353,2.6389,2.6417,2.6471,2.6488,2.6485,2.6567,2.6596,2.6651,2.6661,2.6679,2.669,2.668,2.6723,2.6727,2.6731,2.6744,2.6749,2.669,2.669,2.669,2.669,0,2.6237,2.6276,2.63,2.6353,2.6382,2.6419,2.6453,2.6478,2.6493,2.6517,2.6565,2.6602,2.6646,2.6661,2.6675,2.6718,2.6716,2.6718,2.6712,2.6734,2.6747,2.6753,2.669,2.669,2.669,2.669,0,0,2.6254,2.6323,2.6332,2.6356,2.6408,2.6438,2.6477,2.6522,2.6543,2.658,2.6613,2.6667,2.667,2.6696,2.6714,2.6737,2.6766,2.6737,2.6738,2.674,2.6815,2.6812,2.6818,2.6772,2.6774,2.6774,2.6811,0,2.6287,2.6357,2.6384,2.644,2.6477,2.6497,2.6531,2.6566,2.659,2.6624,2.665,2.6688,2.6689,2.6705,2.6729,2.6757,2.6781,2.6755,2.6802,2.6803,2.679,2.6825,2.6822,2.6855,2.6817,2.6818,2.6818,0,2.6334,2.6373,2.6433,2.6481,2.6498,2.6527,2.6571,2.6604,2.6644,2.666,2.669,2.6706,2.6747,2.6739,2.6795,2.6777,2.6798,2.6815,2.6817,2.6821,2.6811,2.6829,2.6866,2.6871,2.6827,2.6826,2.6825,0,2.6339,2.6407,2.6452,2.6473,2.653,2.655,2.6575,2.6614,2.664,2.6678,2.6695,2.6737,2.6759,2.6791,2.6819,2.6811,2.6872,2.6867,2.6886,2.6885,2.6896,2.6895,2.6936,2.6912,2.6911,2.6911,2.6911,0,2.6373,2.6409,2.6456,2.6483,2.6524,2.6555,2.6595,2.662,2.6656,2.6688,2.6709,2.6739,2.6773,2.6808,2.683,2.6872,2.6883,2.6896,2.6901,2.6894,2.6892,2.6907,2.6905,2.6913,2.6912,2.6912,2.6912,0,2.6385,2.6418,2.6469,2.6519,2.6533,2.6561,2.6604,2.6631,2.6657,2.6698,2.6709,2.6749,2.679,2.6821,2.6875,2.689,2.6935,2.6941,2.6922,2.6924,2.6941,2.6939,2.6993,2.7001,2.6971,2.6971,2.6972,0,2.6404,2.6432,2.6486,2.651,2.6535,2.6573,2.6599,2.6631,2.6658,2.6706,2.6728,2.6771,2.6807,2.6873,2.6906,2.6947,2.6954,2.697,2.696,2.6952,2.6953,2.6951,2.6954,2.6971,2.6971,2.6971,2.6971,0,2.6433,2.6448,2.6486,2.653,2.6561,2.6597,2.6633,2.6651,2.6689,2.6718,2.6762,2.679,2.6846,2.6888,2.6933,2.6958,2.6971,2.6974,2.6981,2.6973,2.696,2.6967,2.6924,2.6973,2.6972,2.6972,2.6972,2.6972,2.6448,2.6475,2.6517,2.6559,2.659,2.6623,2.6652,2.6681,2.6718,2.6767,2.6783,2.6828,2.6868,2.693,2.6955,2.699,2.699,2.6999,2.7002,2.7003,2.7002,2.6956,2.6999,2.6999,2.6999,2.6999,2.6999,0,2.6478,2.6507,2.6545,2.6595,2.6628,2.6639,2.668,2.6706,2.6746,2.6782,2.6818,2.6868,2.691,2.6947,2.6991,2.7012,2.7019,2.7022,2.702,2.7025,2.7,2.699,2.7015,2.7015,2.7015,2.7015,2.7015,2.7015,2.6497,2.6542,2.6563,2.6623,2.6652,2.6696,2.6719,2.675,2.6779,2.6835,2.687,2.6894,2.6931,2.6978,2.7016,2.7026,2.7041,2.7043,2.7054,2.7029,2.7027,2.7025,2.7016,2.7046,2.7046,2.7076,2.7076,2.7076]}]]